RH
21 23 22 17 20 23 25 28 28 25 26 29 32 32 28 24 23 25 26 30 32 30 28 27 27 31 34 35 37 39 39 43 44 46 49 51 56 70 66 63 72 70 73 78
30 27 18 18 26 26 24 29 30 25 22 28 33 33 28 24 23 26 32 33 34 33 31 28 28 29 33 34 38 40 40 43 44 46 50 50 62 71 70 70 73 67 76 81
31 19 22 28 32 28 32 35 35 29 24 27 30 34 30 24 25 29 30 30 33 35 34 31 31 29 30 34 40 41 41 44 45 47 50 52 71 71 76 68 70 74 75 77
21 18 28 33 32 30 34 30 29 30 36 43 32 79 36 28 30 28 32 37 37 35 34 32 32 30 30 33 40 42 42 45 46 48 52 60 70 73 66 70 68 71 75 76
31 28 30 31 28 29 32 28 33 36 46 52 47 71 56 31 32 29 35 36 37 36 37 37 33 30 31 35 42 43 43 46 47 50 52 61 68 56 57 54 60 71 71 74
28 23 28 26 29 28 29 34 54 57 63 83 61 67 72 47 34 28 35 38 39 38 40 36 30 33 37 40 44 44 46 46 48 48 56 68 56 58 61 62 65 71 74 67
30 31 26 27 38 34 38 61 88 84 88 77 62 56 64 36 31 32 41 40 42 43 44 42 41 43 45 48 46 47 44 47 47 49 65 58 52 64 66 65 69 72 75 78
60 47 31 28 34 43 41 57 84 84 88 81 46 53 66 35 35 40 43 41 40 43 47 46 42 52 46 50 47 41 44 48 46 56 60 46 51 56 59 66 72 79 73 77
72 53 31 31 34 37 40 63 56 77 74 80 76 61 52 38 43 48 45 42 46 50 53 54 51 52 51 48 41 41 45 47 48 57 52 51 53 54 67 70 86 85 71 80
79 60 39 28 32 37 45 53 58 82 68 96 80 68 76 64 47 37 39 51 58 57 61 58 60 44 47 39 39 40 45 46 52 52 52 52 58 68 73 81 73 71 77 85
82 61 47 29 43 58 60 75 95 81 90 90 97 73 83 69 60 54 64 67 71 69 70 68 59 45 38 34 38 39 45 46 51 48 48 55 67 74 76 73 74 73 81 87
55 63 70 40 50 51 72 74 86 72 77 97 93 72 86 69 56 60 71 76 71 73 71 58 42 40 32 36 38 37 45 46 49 48 50 60 67 74 74 77 77 72 82 85
57 67 79 60 54 48 58 84 88 90 92 97 76 61 81 90 79 73 78 70 62 57 47 48 44 39 35 37 37 36 45 46 46 48 51 63 71 70 78 78 76 72 80 88
52 73 69 68 51 60 63 89 86 67 85 71 89 70 81 78 84 71 68 67 61 57 46 51 46 37 36 37 36 36 46 45 46 49 54 64 67 68 78 77 74 71 79 90
47 66 61 54 51 49 51 79 78 73 58 59 56 84 77 75 77 76 71 64 55 42 43 46 43 36 37 37 36 38 48 45 46 47 59 66 66 70 73 74 70 70 87 86
47 55 49 41 38 45 53 61 68 59 61 82 78 79 75 66 67 70 66 59 40 40 41 38 34 36 38 37 36 41 45 44 47 48 63 66 66 70 75 72 70 82 87 86
49 56 59 41 40 38 54 57 68 64 66 53 68 64 66 68 60 61 56 42 40 42 40 37 32 36 37 37 36 43 43 46 46 51 64 67 68 73 74 70 76 85 84 86
58 56 62 72 52 60 44 38 42 50 48 58 56 61 58 55 47 45 42 43 42 41 36 32 32 36 37 36 38 42 43 46 49 51 66 67 70 74 73 77 81 84 83 86
44 67 69 72 64 49 37 43 40 40 33 49 46 55 53 47 41 43 42 40 43 36 29 26 31 35 37 37 40 42 45 47 49 54 68 68 70 76 75 81 89 90 83 79
48 57 75 81 63 60 44 26 27 26 46 26 44 49 51 40 57 60 44 40 38 30 25 28 32 36 37 38 41 44 48 50 49 60 72 70 71 75 77 83 93 85 82 80
67 76 73 98 87 74 49 27 21 26 35 26 32 33 47 42 41 50 42 37 33 26 24 28 32 36 38 39 41 47 51 52 50 63 70 75 75 77 81 80 88 84 84 91
66 74 86 87 85 62 48 27 31 44 40 27 31 33 42 49 48 47 44 38 29 25 26 28 34 39 39 40 42 49 54 54 53 64 74 80 75 77 79 78 83 85 92 100
56 60 73 68 73 54 51 31 30 41 30 26 32 45 45 45 44 46 45 38 28 25 26 28 35 39 40 41 43 50 56 56 58 67 79 76 65 72 76 76 80 89 94 100
37 54 63 60 48 54 55 34 38 32 29 28 30 43 45 47 46 49 44 38 29 27 27 32 38 40 41 44 50 55 58 59 64 73 82 74 76 69 70 72 81 85 95 100
54 49 57 62 52 45 49 45 34 31 31 30 33 36 39 44 44 43 48 35 31 28 29 31 38 41 43 49 55 58 59 56 60 68 70 73 78 86 78 74 72 75 81 97
51 56 57 61 48 47 44 46 43 37 35 34 36 39 36 36 42 42 44 35 32 31 31 35 42 44 46 52 57 59 56 51 55 66 75 76 82 90 92 88 74 67 73 69
Wind_Speed
5 8 3 3 2 7 13 9 9 5 7 7 8 7 7 5 6 6 5 5 5 5 9 16 17 12 10 12 14 16 20 19 24 28 29 30 28 22 30 32 27 32 27 27
7 5 4 6 13 13 15 14 5 2 6 8 6 6 5 5 3 5 6 5 5 5 10 14 15 15 8 10 11 14 17 18 22 25 25 27 21 19 25 28 27 30 24 25
6 2 7 8 7 11 4 6 4 7 2 5 7 2 3 1 6 5 4 3 4 6 6 10 14 17 15 10 9 10 15 16 19 23 25 27 16 20 24 31 31 28 23 22
5 5 8 8 6 3 5 3 8 7 4 4 3 3 5 4 5 3 4 6 5 5 6 11 14 18 19 12 7 9 14 14 19 22 23 21 18 20 25 27 30 28 23 23
3 4 6 6 0 2 4 3 6 4 4 4 3 4 4 9 4 2 6 5 5 4 5 10 16 17 21 13 6 10 13 14 18 20 21 18 19 24 26 27 28 27 24 23
4 1 4 2 2 3 5 4 7 5 3 3 4 5 4 5 5 3 4 3 4 5 7 14 15 21 27 10 7 10 12 15 18 21 19 18 24 25 25 25 27 28 25 24
4 4 4 4 5 5 4 6 3 4 3 5 4 3 7 4 5 7 6 2 4 5 7 12 17 23 24 7 9 10 13 15 19 21 17 23 26 23 24 23 22 28 29 26
5 1 3 4 2 3 2 5 5 6 3 3 3 4 5 5 7 8 5 1 4 7 7 12 18 22 11 10 10 12 13 15 22 20 17 26 25 24 24 26 20 24 29 27
5 1 2 5 2 2 2 3 4 5 4 4 3 4 5 5 5 5 4 5 7 8 8 12 19 17 8 11 11 12 12 16 21 17 21 26 26 27 28 21 16 24 28 25
6 4 2 2 1 6 4 1 3 3 2 3 5 4 5 5 3 0 2 6 8 8 8 13 16 8 9 11 11 13 13 17 18 18 22 25 26 22 20 18 23 26 25 24
5 4 4 2 3 6 3 3 5 5 3 5 1 6 5 7 7 4 6 8 9 9 8 10 6 9 10 12 12 15 13 15 14 19 23 24 21 19 20 26 25 25 27 26
5 5 3 3 2 4 4 6 5 4 5 1 4 6 4 5 6 5 8 9 8 6 7 3 10 9 11 13 13 17 13 13 14 18 19 19 18 21 25 26 25 27 28 27
7 1 4 3 5 3 3 4 4 6 3 5 5 5 1 5 6 6 8 9 8 3 3 9 9 10 11 12 14 18 13 13 15 16 17 16 19 26 24 25 25 26 28 29
7 3 6 7 5 5 4 5 5 5 4 4 6 4 5 7 8 8 8 10 7 4 6 6 8 10 11 11 14 16 13 14 16 17 15 15 21 25 23 24 24 24 26 28
5 4 4 3 3 4 6 9 11 7 6 6 5 8 7 8 9 9 9 9 3 7 6 6 8 10 10 11 14 15 11 14 17 21 11 14 21 23 23 23 24 24 26 27
1 2 2 2 3 6 5 11 16 13 4 5 3 9 11 8 7 6 9 6 5 7 7 6 10 10 8 10 13 13 11 16 18 22 9 14 21 23 22 23 24 27 27 27
5 5 3 2 2 3 7 12 15 8 6 11 8 10 5 6 8 9 9 6 9 8 7 6 10 10 7 9 11 9 12 15 18 20 8 15 20 20 21 22 24 25 27 27
6 5 3 3 3 1 7 2 13 16 10 13 5 7 12 9 9 5 7 8 8 8 7 10 12 10 7 8 10 8 13 15 17 19 8 16 17 19 21 22 23 25 25 26
5 4 3 4 3 6 5 5 8 8 7 13 17 9 9 5 5 5 7 6 7 12 14 13 13 10 8 8 8 8 13 15 16 18 9 15 17 17 21 22 22 23 24 26
5 5 4 2 3 6 6 1 7 5 4 5 11 11 12 8 4 4 7 13 15 17 15 16 13 10 8 7 7 10 12 13 18 17 8 15 17 18 19 22 20 22 21 24
4 2 6 1 2 8 8 5 4 5 6 3 8 7 8 7 5 7 14 11 20 18 16 16 12 10 9 7 7 9 10 13 15 13 9 15 17 17 17 20 20 23 22 22
6 6 4 3 2 8 7 3 7 6 2 5 5 5 7 8 12 14 9 13 21 18 15 15 13 12 8 6 6 8 9 11 13 10 12 15 19 17 16 16 20 22 23 20
4 7 6 9 7 6 6 4 5 7 6 5 7 6 12 13 8 11 9 16 19 20 17 13 15 12 7 6 5 8 8 9 9 9 12 16 19 18 17 17 19 22 25 19
4 5 4 3 6 10 7 4 6 7 7 6 6 9 11 11 10 8 12 14 20 22 18 16 14 12 9 8 8 8 6 8 8 9 11 13 17 18 19 19 19 20 23 18
6 11 8 4 7 2 9 9 9 7 7 7 10 10 11 12 12 15 11 17 21 22 18 14 13 13 11 11 8 4 7 9 8 9 11 11 12 13 16 19 19 20 19 19
6 7 7 7 9 7 6 12 9 9 9 10 9 8 13 18 15 18 18 22 25 23 18 16 15 14 13 10 6 3 7 9 9 9 9 10 12 14 13 13 16 18 17 18
Wind_Direction
23 74 97 354 310 113 106 109 115 116 168 106 147 149 168 174 109 99 79 68 59 41 32 52 43 46 44 20 13 16 16 12 7 11 10 7 4 357 0 4 359 1 1 5
44 75 324 83 77 98 113 120 127 73 151 104 168 176 201 181 152 153 116 93 67 33 30 36 33 22 14 7 9 13 14 10 8 9 8 5 3 360 0 2 358 359 4 359
112 165 48 86 59 96 71 128 177 140 150 70 114 359 203 214 95 102 77 97 58 58 36 19 19 8 354 343 2 8 12 11 9 5 4 7 18 9 1 356 354 2 2 356
73 345 93 71 69 56 75 357 116 126 93 159 168 252 236 151 129 126 98 71 52 37 27 20 2 351 339 341 343 9 13 14 10 5 8 13 22 14 3 2 1 360 358 356
265 89 78 74 260 101 163 101 126 123 127 90 334 75 277 136 165 133 97 75 41 26 29 356 347 333 332 342 360 13 16 16 10 8 4 11 17 10 9 11 4 359 359 354
99 59 66 115 20 139 142 82 37 42 75 29 237 123 269 200 178 140 101 63 23 6 357 346 331 328 334 1 34 20 25 19 12 7 7 20 6 3 2 1 3 357 353 354
39 16 6 45 59 24 80 70 13 5 8 219 221 100 237 176 152 134 131 75 337 344 339 328 321 330 347 45 43 38 25 20 12 10 18 8 1 359 355 349 353 359 353 345
130 303 0 330 77 174 118 143 146 186 202 256 291 237 265 152 112 113 120 169 348 329 308 306 318 342 14 69 56 39 28 22 15 16 22 13 11 2 356 348 347 355 353 350
112 308 348 56 57 94 226 68 152 105 10 49 255 315 18 125 87 73 40 356 308 292 293 301 323 2 64 71 58 42 31 25 20 19 13 8 7 3 5 8 357 351 353 355
198 89 262 219 22 23 104 69 62 358 118 269 292 267 222 202 186 316 351 292 287 285 295 306 341 56 83 69 61 37 32 25 20 19 12 8 8 15 21 25 3 1 3 5
140 102 266 89 191 174 31 42 59 108 114 158 216 264 223 181 194 195 256 264 266 278 286 307 3 103 87 67 54 33 28 25 25 18 14 11 24 24 14 7 10 11 11 10
189 126 136 215 358 129 111 158 135 119 255 155 141 276 238 202 205 205 259 266 270 267 290 321 115 108 77 65 47 25 23 21 18 16 17 21 17 13 10 14 15 12 13 13
179 104 92 4 352 301 165 160 126 111 91 200 137 261 248 264 264 245 260 277 276 320 105 120 117 99 76 61 38 21 17 19 12 9 16 21 17 9 16 15 12 10 10 14
94 137 162 181 197 148 165 167 170 127 116 183 226 269 290 256 246 256 259 261 274 273 154 137 118 97 77 56 33 18 18 22 13 6 18 20 16 16 17 13 9 9 12 12
121 148 179 203 138 143 168 172 182 185 187 163 245 206 232 222 225 237 237 262 261 145 150 157 117 97 77 54 32 20 35 17 13 7 22 23 18 20 18 13 10 10 15 15
142 149 128 315 225 218 216 192 191 205 215 261 195 274 211 229 235 255 242 247 168 148 161 127 111 99 82 55 31 25 32 18 14 9 29 21 20 24 22 14 10 13 13 15
129 126 99 242 202 43 318 214 187 191 198 202 207 223 181 213 217 226 236 195 155 162 139 129 113 116 94 61 34 38 26 20 14 16 31 21 23 25 22 16 14 11 11 12
130 116 113 163 62 336 245 252 190 201 211 209 206 189 189 208 219 228 181 146 150 139 133 131 130 130 99 67 42 43 26 21 18 15 33 24 26 27 23 19 15 13 9 12
126 114 126 150 203 295 270 195 165 172 263 197 217 191 201 149 82 36 116 146 146 148 144 139 142 132 110 72 55 46 32 23 18 17 31 31 28 28 22 17 18 14 14 17
114 88 118 149 166 226 241 162 131 100 290 211 188 189 192 138 156 217 170 137 140 142 140 142 145 139 120 88 70 48 37 28 14 19 52 30 30 31 26 21 25 17 17 16
147 71 155 118 229 285 238 185 122 105 233 214 173 179 156 181 189 153 154 141 149 148 146 151 150 147 128 102 68 62 47 29 16 34 42 33 30 29 26 20 22 19 18 13
157 146 176 118 114 270 187 114 171 212 219 140 124 132 120 122 128 144 147 138 148 153 147 151 150 146 130 109 81 75 54 26 24 72 47 29 20 26 24 15 14 18 17 12
184 180 180 182 209 229 238 191 207 170 149 166 126 146 135 137 147 156 148 151 157 154 147 152 151 141 132 120 100 83 55 29 24 39 43 28 32 30 27 23 17 16 16 14
229 164 183 103 237 227 233 248 183 173 166 163 145 151 152 152 148 144 150 151 145 150 147 146 147 144 136 131 108 87 38 16 17 30 41 31 36 35 36 29 26 24 21 20
193 157 169 256 273 277 228 208 202 202 170 160 155 159 161 147 160 157 158 153 153 153 153 156 151 147 143 141 118 71 19 13 26 34 36 37 26 20 23 31 32 31 37 28
188 169 170 211 209 181 220 207 196 185 181 178 159 158 164 159 159 163 160 158 155 157 158 155 154 152 147 148 129 60 19 23 51 52 32 21 18 15 8 11 29 41 39 35